Back to catalog

FENGYUN 1C DEB

AliveSSO
NORAD 30756·DEBRIS·🇨🇳 China

Launched May 10, 1999 from Taiyuan Satellite Launch Center

Loading…

Next Passes (next 24 hours)

TLE

FreshSource: Space-Track

Epoch: Sep 14, 2026, 03:58 UTC

1 30756U 99025ATS 26257.16556030  .00001575  00000-0  74789-3 0  9990
2 30756  98.9749 333.2358 0071037 250.4935 138.8478 14.19688680  3061

Track FENGYUN 1C DEB in real time with AllMySat

Download on the App Store